This is the latest recevied weather packets stored in our database for station/object S54A-10. If no packets are shown the sender has not sent any weather packets the latest 10 day(s).
| Time | Temp. | Humidity | Pressure | Rain* | Wind** | Luminosity | Snow |
|---|---|---|---|---|---|---|---|
| 1777583704 | 9.44° C | 43% | 1029.6 hPa | - | - | - | - |
| 1777582804 | 9.44° C | 43% | 1029.4 hPa | - | - | - | - |
| 1777581904 | 10° C | 42% | 1029.3 hPa | - | - | - | - |
| 1777581004 | 10° C | 41% | 1029.3 hPa | - | - | - | - |
| 1777580104 | 10.56° C | 40% | 1029.1 hPa | - | - | - | - |
| 1777579204 | 11.67° C | 38% | 1028.9 hPa | - | - | - | - |
| 1777578303 | 12.22° C | 37% | 1028.6 hPa | - | - | - | - |
| 1777577403 | 12.22° C | 37% | 1028.5 hPa | - | - | - | - |
| 1777576503 | 12.22° C | 36% | 1028.3 hPa | - | - | - | - |
| 1777575603 | 13.33° C | 35% | 1028 hPa | - | - | - | - |
| 1777574703 | 13.89° C | 35% | 1027.8 hPa | - | - | - | - |
| 1777573803 | 14.44° C | 34% | 1027.6 hPa | - | - | - | - |
| 1777572903 | 15° C | 33% | 1027.2 hPa | - | - | - | - |
| 1777572003 | 15.56° C | 31% | 1027 hPa | - | - | - | - |
| 1777571103 | 17.22° C | 29% | 1026.8 hPa | - | - | - | - |
| 1777570203 | 18.33° C | 29% | 1026.7 hPa | - | - | - | - |
| 1777569303 | 18.89° C | 27% | 1026.5 hPa | - | - | - | - |
| 1777568403 | 20° C | 28% | 1026.4 hPa | - | - | - | - |
| 1777567503 | 21.67° C | 28% | 1026.4 hPa | - | - | - | - |
| 1777566602 | 23.33° C | 27% | 1026.2 hPa | - | - | - | - |
| 1777565702 | 23.33° C | 27% | 1026.3 hPa | - | - | - | - |
| 1777564802 | 23.33° C | 27% | 1026.3 hPa | - | - | - | - |
| 1777563902 | 23.33° C | 27% | 1026.4 hPa | - | - | - | - |
| 1777563002 | 23.33° C | 26% | 1026.3 hPa | - | - | - | - |
| 1777562102 | 23.89° C | 24% | 1025.9 hPa | - | - | - | - |
* Rain since midnight (hover to see other rain measurements)
** Current wind speed in m/s (hover to see current wind gust speed)